• In Belarus
  • List of Countries
  • For 7 days
  • Water Temperature
  • Satellite Maps
  • Weather Map
  • Weather Widgets
  • user-avatar
    Login

    Hourly Weather Cobija

    Today, 26 September, Wednesday

    Time Temperature Precipitation Wind Pressure Humidity
    00:00 +28°C° 0 mm 1 mps 736 mmHg 59%
    01:00 +27°C° 0 mm 1 mps 736 mmHg 61%
    02:00 +27°C° 0 mm 1 mps 736 mmHg 62%
    03:00 +27°C° 0 mm 1 mps 736 mmHg 64%
    04:00 +26°C° 0 mm 1 mps 736 mmHg 66%
    05:00 +27°C° 0 mm 1 mps 736 mmHg 63%
    06:00 +29°C° 0 mm 1 mps 737 mmHg 60%
    07:00 +30°C° 0 mm 1 mps 737 mmHg 57%
    08:00 +33°C° 0 mm 1 mps 738 mmHg 49%
    09:00 +36°C° 0 mm 2 mps 738 mmHg 40%
    10:00 +39°C° 0 mm 2 mps 738 mmHg 32%
    11:00 +40°C° 0 mm 2 mps 737 mmHg 30%
    12:00 +40°C° 0 mm 2 mps 736 mmHg 28%
    13:00 +41°C° 0 mm 2 mps 735 mmHg 26%
    14:00 +41°C° 0 mm 2 mps 734 mmHg 28%
    15:00 +40°C° 0 mm 2 mps 733 mmHg 30%
    16:00 +39°C° 0 mm 2 mps 733 mmHg 31%
    17:00 +37°C° 0 mm 2 mps 733 mmHg 37%
    18:00 +34°C° 0 mm 1 mps 734 mmHg 42%
    19:00 +32°C° 0 mm 1 mps 734 mmHg 48%
    20:00 +31°C° 0 mm 1 mps 734 mmHg 50%
    21:00 +30°C° 0 mm 1 mps 735 mmHg 53%
    22:00 +30°C° 0 mm 1 mps 735 mmHg 56%
    23:00 +29°C° 0 mm 1 mps 735 mmHg 58%

    Tomorrow, 27 September, Thursday

    Time Temperature Precipitation Wind Pressure Humidity
    00:00 +29°C° 0 mm 1 mps 735 mmHg 60%
    01:00 +29°C° 0 mm 1 mps 735 mmHg 61%
    02:00 +28°C° 0 mm 1 mps 735 mmHg 64%
    03:00 +27°C° 0 mm 1 mps 735 mmHg 66%
    04:00 +27°C° 0 mm 1 mps 735 mmHg 69%
    05:00 +27°C° 0.4 mm 1 mps 735 mmHg 73%
    06:00 +27°C° 0.4 mm 1 mps 736 mmHg 77%
    07:00 +27°C° 0.4 mm 1 mps 737 mmHg 80%
    08:00 +31°C° 0 mm 1 mps 737 mmHg 66%
    09:00 +35°C° 0 mm 2 mps 737 mmHg 52%
    10:00 +38°C° 0 mm 2 mps 738 mmHg 38%
    11:00 +39°C° 0 mm 2 mps 737 mmHg 36%
    12:00 +39°C° 0 mm 1 mps 735 mmHg 34%
    13:00 +40°C° 0 mm 1 mps 734 mmHg 32%
    14:00 +40°C° 0 mm 1 mps 734 mmHg 32%
    15:00 +39°C° 0 mm 1 mps 733 mmHg 32%
    16:00 +39°C° 0 mm 1 mps 733 mmHg 32%
    17:00 +36°C° 0 mm 1 mps 733 mmHg 37%
    18:00 +34°C° 0 mm 1 mps 733 mmHg 43%
    19:00 +32°C° 0 mm 1 mps 734 mmHg 48%
    20:00 +31°C° 0 mm 1 mps 734 mmHg 50%
    21:00 +31°C° 0 mm 1 mps 735 mmHg 52%
    22:00 +30°C° 0 mm 1 mps 735 mmHg 54%
    23:00 +30°C° 0 mm 1 mps 735 mmHg 55%

    Day after tomorrow, 28 September, Friday

    Time Temperature Precipitation Wind Pressure Humidity
    00:00 +29°C° 0 mm 1 mps 735 mmHg 57%
    01:00 +29°C° 0 mm 1 mps 735 mmHg 58%
    02:00 +28°C° 0 mm 1 mps 735 mmHg 61%
    03:00 +28°C° 0 mm 1 mps 735 mmHg 63%
    04:00 +27°C° 0 mm 1 mps 735 mmHg 66%
    05:00 +26°C° 0 mm 0 mps 736 mmHg 63%
    06:00 +27°C° 0 mm 0 mps 737 mmHg 61%
    07:00 +28°C° 0 mm 0 mps 737 mmHg 59%
    08:00 +33°C° 0 mm 1 mps 738 mmHg 50%
    09:00 +36°C° 0 mm 1 mps 738 mmHg 42%
    10:00 +40°C° 0 mm 1 mps 738 mmHg 34%
    11:00 +40°C° 0 mm 1 mps 737 mmHg 34%
    12:00 +40°C° 0 mm 1 mps 736 mmHg 33%
    13:00 +40°C° 0 mm 1 mps 735 mmHg 32%
    14:00 +40°C° 0 mm 1 mps 734 mmHg 32%
    15:00 +40°C° 0 mm 1 mps 734 mmHg 31%
    16:00 +40°C° 0 mm 1 mps 733 mmHg 31%
    17:00 +37°C° 0 mm 1 mps 733 mmHg 36%
    18:00 +34°C° 0 mm 1 mps 734 mmHg 41%
    19:00 +30°C° 0 mm 0 mps 734 mmHg 46%
    20:00 +30°C° 0 mm 0 mps 734 mmHg 48%
    21:00 +29°C° 0 mm 0 mps 735 mmHg 50%
    22:00 +28°C° 0 mm 0 mps 736 mmHg 51%
    23:00 +30°C° 0 mm 1 mps 735 mmHg 53%

    29 September, Saturday

    Time Temperature Precipitation Wind Pressure Humidity
    00:00 +30°C° 0 mm 1 mps 735 mmHg 55%
    01:00 +29°C° 0 mm 1 mps 735 mmHg 57%
    02:00 +29°C° 0 mm 1 mps 735 mmHg 60%
    03:00 +28°C° 0 mm 1 mps 735 mmHg 64%
    04:00 +27°C° 0 mm 1 mps 735 mmHg 68%
    05:00 +28°C° 0 mm 1 mps 735 mmHg 67%
    06:00 +29°C° 0 mm 1 mps 736 mmHg 66%
    07:00 +30°C° 0 mm 1 mps 737 mmHg 65%
    08:00 +33°C° 0 mm 1 mps 737 mmHg 55%
    09:00 +36°C° 0 mm 2 mps 737 mmHg 46%
    10:00 +39°C° 0 mm 2 mps 737 mmHg 36%
    11:00 +39°C° 0 mm 2 mps 736 mmHg 37%
    12:00 +39°C° 0 mm 1 mps 735 mmHg 37%
    13:00 +37°C° 0 mm 1 mps 734 mmHg 38%
    14:00 +37°C° 0 mm 1 mps 733 mmHg 38%
    15:00 +39°C° 0 mm 2 mps 733 mmHg 38%
    16:00 +39°C° 0 mm 2 mps 732 mmHg 38%
    17:00 +37°C° 0 mm 2 mps 733 mmHg 44%
    18:00 +34°C° 0 mm 1 mps 733 mmHg 50%
    19:00 +32°C° 0 mm 1 mps 734 mmHg 55%
    20:00 +31°C° 0.1 mm 1 mps 734 mmHg 60%
    21:00 +30°C° 0.1 mm 1 mps 734 mmHg 64%
    22:00 +29°C° 0.1 mm 1 mps 735 mmHg 68%
    23:00 +29°C° 0 mm 1 mps 735 mmHg 69%

    30 September, Sunday

    Time Temperature Precipitation Wind Pressure Humidity
    00:00 +28°C° 0 mm 1 mps 734 mmHg 70%
    01:00 +28°C° 0 mm 1 mps 734 mmHg 70%
    02:00 +28°C° 0 mm 1 mps 734 mmHg 72%
    03:00 +27°C° 0 mm 1 mps 734 mmHg 73%
    04:00 +27°C° 0 mm 1 mps 735 mmHg 74%
    05:00 +28°C° 0.3 mm 1 mps 735 mmHg 74%
    06:00 +28°C° 0.3 mm 1 mps 736 mmHg 74%
    07:00 +29°C° 0.3 mm 1 mps 737 mmHg 74%
    08:00 +31°C° 0 mm 2 mps 737 mmHg 63%
    09:00 +35°C° 0 mm 2 mps 737 mmHg 53%
    10:00 +38°C° 0 mm 2 mps 737 mmHg 42%
    11:00 +39°C° 0 mm 2 mps 736 mmHg 39%
    12:00 +40°C° 0 mm 2 mps 735 mmHg 35%
    13:00 +40°C° 0 mm 2 mps 734 mmHg 32%
    14:00 +40°C° 0 mm 2 mps 734 mmHg 32%
    15:00 +40°C° 0 mm 2 mps 733 mmHg 33%
    16:00 +39°C° 0 mm 2 mps 733 mmHg 34%
    17:00 +36°C° 0 mm 1 mps 733 mmHg 39%
    18:00 +34°C° 0 mm 1 mps 734 mmHg 44%
    19:00 +32°C° 0 mm 1 mps 734 mmHg 50%
    20:00 +31°C° 0 mm 1 mps 734 mmHg 52%
    21:00 +31°C° 0 mm 1 mps 735 mmHg 54%
    22:00 +28°C° 0 mm 0 mps 735 mmHg 57%
    23:00 +29°C° 0 mm 1 mps 735 mmHg 58%

    1 October, Monday

    Time Temperature Precipitation Wind Pressure Humidity
    00:00 +29°C° 0 mm 1 mps 734 mmHg 59%
    01:00 +29°C° 0 mm 1 mps 734 mmHg 60%
    02:00 +28°C° 0 mm 1 mps 734 mmHg 62%
    03:00 +28°C° 0 mm 1 mps 734 mmHg 63%
    04:00 +27°C° 0 mm 1 mps 735 mmHg 64%
    05:00 +28°C° 0 mm 1 mps 736 mmHg 61%
    06:00 +29°C° 0 mm 1 mps 736 mmHg 59%
    07:00 +31°C° 0 mm 1 mps 737 mmHg 56%
    08:00 +33°C° 0 mm 1 mps 737 mmHg 49%
    09:00 +37°C° 0 mm 2 mps 737 mmHg 42%
    10:00 +40°C° 0 mm 2 mps 737 mmHg 35%
    11:00 +40°C° 0 mm 2 mps 736 mmHg 33%
    12:00 +41°C° 0 mm 2 mps 735 mmHg 31%
    13:00 +41°C° 0 mm 2 mps 734 mmHg 30%
    14:00 +40°C° 0 mm 2 mps 734 mmHg 32%
    15:00 +39°C° 0 mm 2 mps 734 mmHg 34%
    16:00 +39°C° 0 mm 2 mps 733 mmHg 36%
    17:00 +36°C° 0 mm 1 mps 734 mmHg 40%
    18:00 +34°C° 0 mm 1 mps 734 mmHg 45%
    19:00 +33°C° 0 mm 1 mps 734 mmHg 49%
    20:00 +32°C° 0 mm 1 mps 735 mmHg 51%
    21:00 +31°C° 0 mm 1 mps 735 mmHg 54%
    22:00 +30°C° 0 mm 1 mps 735 mmHg 56%
    23:00 +30°C° 0 mm 1 mps 735 mmHg 57%
    Show more